IBE09LT LEMD-LDSP

Flight info

Callsign IBE09LT
Flight time 2h 11m
Altitude 36000
Route NANDO M871 MABUX T257 LASPO M871 PTC DCT MHN DCT MORSS DCT BAVON DCT ORKUM DCT ELSAG DCT ALG DCT VAPUP
Aircraft A320/M-SDE3FGHIRWY/LB1

Departure

Time 2026-05-07 06:35
Airport Adolfo Suárez Madrid–Barajas Airport (LEMD)

Arrival

Time 2026-05-07 08:47
Airport Split Saint Jerome Airport (LDSP)
Time Latitude Longitude Altitude Speed Heading
2026-05-07 05:59 40.49850 -3.56366 1981 ft 0 kts 270°
2026-05-07 06:28 40.49850 -3.56386 1982 ft 4 kts 269°
2026-05-07 06:28 40.49857 -3.56442 1980 ft 9 kts 305°
2026-05-07 06:28 40.49924 -3.56443 1981 ft 12 kts 40°
2026-05-07 06:29 40.49941 -3.56320 1980 ft 16 kts 89°
2026-05-07 06:29 40.49941 -3.56158 1980 ft 19 kts 90°
2026-05-07 06:29 40.49952 -3.56034 1982 ft 0 kts 68°
2026-05-07 06:33 40.49954 -3.56027 1981 ft 3 kts 65°
2026-05-07 06:33 40.49976 -3.55983 1980 ft 8 kts 50°
2026-05-07 06:33 40.50033 -3.55936 1980 ft 10 kts 19°
2026-05-07 06:33 40.50102 -3.55924 1980 ft 9 kts
2026-05-07 06:34 40.50143 -3.55924 1980 ft 0 kts 360°
2026-05-07 06:34 40.50144 -3.55924 1980 ft 1 kts 360°
2026-05-07 06:34 40.50277 -3.55924 1983 ft 53 kts 360°
2026-05-07 06:34 40.50879 -3.55927 1980 ft 117 kts 360°
2026-05-07 06:35 40.51873 -3.55934 1981 ft 166 kts 359°
2026-05-07 06:35 40.53131 -3.55944 2302 ft 184 kts 360°
2026-05-07 06:35 40.54399 -3.55818 3057 ft 183 kts 15°
2026-05-07 06:35 40.55665 -3.55312 3462 ft 200 kts 19°
2026-05-07 06:36 40.57030 -3.54735 3740 ft 218 kts 20°
2026-05-07 06:36 40.58505 -3.54101 4316 ft 226 kts 20°
2026-05-07 06:36 40.59919 -3.53182 4898 ft 233 kts 41°
2026-05-07 06:36 40.61201 -3.51816 5472 ft 241 kts 42°
2026-05-07 06:37 40.62503 -3.50367 6149 ft 248 kts 43°
2026-05-07 06:37 40.63824 -3.48879 6844 ft 252 kts 43°
2026-05-07 06:37 40.65162 -3.47369 7548 ft 256 kts 42°
2026-05-07 06:37 40.66523 -3.45839 8288 ft 259 kts 42°
2026-05-07 06:38 40.67905 -3.44287 9030 ft 263 kts 42°
2026-05-07 06:38 40.69308 -3.42716 9777 ft 266 kts 42°
2026-05-07 06:38 40.70729 -3.41127 10474 ft 269 kts 41°
2026-05-07 06:38 40.72163 -3.39524 11174 ft 272 kts 42°
2026-05-07 06:39 40.73384 -3.37636 11827 ft 272 kts 66°
2026-05-07 06:39 40.73855 -3.35253 12493 ft 270 kts 92°
2026-05-07 06:39 40.73481 -3.32790 12801 ft 282 kts 120°
2026-05-07 06:39 40.72347 -3.30654 13349 ft 287 kts 130°
2026-05-07 06:40 40.71075 -3.28608 13969 ft 290 kts 137°
2026-05-07 06:40 40.69504 -3.26932 14575 ft 291 kts 151°
2026-05-07 06:40 40.67676 -3.25794 15193 ft 292 kts 160°
2026-05-07 06:40 40.65783 -3.24810 15818 ft 294 kts 160°
2026-05-07 06:41 40.63896 -3.23821 16443 ft 297 kts 160°
2026-05-07 06:41 40.61941 -3.22793 17082 ft 299 kts 160°
2026-05-07 06:41 40.60027 -3.21780 17690 ft 302 kts 160°
2026-05-07 06:41 40.58067 -3.20741 18284 ft 305 kts 160°
2026-05-07 06:42 40.56091 -3.19694 18837 ft 307 kts 160°
2026-05-07 06:42 40.54097 -3.18639 19376 ft 310 kts 160°
2026-05-07 06:42 40.52097 -3.17583 19917 ft 311 kts 160°
2026-05-07 06:42 40.50076 -3.16520 20455 ft 313 kts 160°
2026-05-07 06:43 40.48049 -3.15454 20983 ft 316 kts 160°
2026-05-07 06:43 40.46002 -3.14375 21508 ft 318 kts 160°
2026-05-07 06:43 40.43941 -3.13290 22026 ft 320 kts 161°
2026-05-07 06:43 40.41870 -3.12203 22536 ft 322 kts 160°
2026-05-07 06:44 40.39881 -3.10809 23024 ft 328 kts 148°
2026-05-07 06:44 40.38069 -3.08874 23157 ft 344 kts 142°
2026-05-07 06:44 40.36240 -3.06769 23301 ft 356 kts 142°
2026-05-07 06:44 40.34342 -3.04592 23438 ft 368 kts 142°
2026-05-07 06:45 40.32382 -3.02353 23567 ft 379 kts 142°
2026-05-07 06:45 40.30363 -3.00052 23683 ft 390 kts 142°
2026-05-07 06:45 40.28289 -2.97695 23803 ft 400 kts 142°
2026-05-07 06:45 40.26158 -2.95282 23913 ft 410 kts 142°
2026-05-07 06:46 40.23982 -2.92819 24061 ft 418 kts 142°
2026-05-07 06:46 40.21771 -2.90312 24303 ft 422 kts 142°
2026-05-07 06:46 40.19547 -2.87787 24612 ft 424 kts 142°
2026-05-07 06:46 40.17314 -2.85252 24945 ft 427 kts 142°
2026-05-07 06:47 40.15211 -2.82477 25261 ft 433 kts 133°
2026-05-07 06:47 40.13472 -2.79229 25571 ft 440 kts 123°
2026-05-07 06:47 40.12170 -2.75588 25875 ft 447 kts 113°
2026-05-07 06:47 40.11253 -2.71683 26185 ft 452 kts 110°
2026-05-07 06:48 40.10366 -2.67724 26478 ft 454 kts 110°
2026-05-07 06:48 40.09474 -2.63764 26762 ft 457 kts 110°
2026-05-07 06:48 40.08582 -2.59821 27045 ft 459 kts 110°
2026-05-07 06:48 40.07662 -2.55776 27323 ft 461 kts 110°
2026-05-07 06:49 40.06756 -2.51797 27587 ft 464 kts 110°
2026-05-07 06:49 40.05838 -2.47752 27858 ft 466 kts 110°
2026-05-07 06:49 40.04916 -2.43695 28120 ft 468 kts 110°
2026-05-07 06:49 40.03984 -2.39611 28386 ft 470 kts 111°
2026-05-07 06:50 40.03046 -2.35520 28647 ft 472 kts 111°
2026-05-07 06:50 40.02098 -2.31409 28905 ft 474 kts 111°
2026-05-07 06:50 40.01150 -2.27300 29273 ft 473 kts 111°
2026-05-07 06:50 40.00202 -2.23184 29655 ft 473 kts 111°
2026-05-07 06:51 39.99262 -2.19094 30003 ft 472 kts 111°
2026-05-07 06:51 39.98317 -2.14995 30313 ft 472 kts 111°
2026-05-07 06:51 39.97369 -2.10897 30613 ft 471 kts 111°
2026-05-07 06:51 39.96416 -2.06801 30921 ft 471 kts 111°
2026-05-07 06:52 39.95470 -2.02731 31213 ft 471 kts 111°
2026-05-07 06:52 39.94519 -1.98642 31521 ft 470 kts 111°
2026-05-07 06:52 39.93573 -1.94580 31817 ft 470 kts 111°
2026-05-07 06:52 39.92621 -1.90504 32117 ft 469 kts 112°
2026-05-07 06:53 39.91667 -1.86434 32414 ft 469 kts 112°
2026-05-07 06:53 39.90713 -1.82379 32700 ft 469 kts 112°
2026-05-07 06:53 39.89759 -1.78320 32997 ft 469 kts 112°
2026-05-07 06:53 39.88806 -1.74269 33282 ft 468 kts 112°
2026-05-07 06:54 39.87852 -1.70215 33554 ft 468 kts 112°
2026-05-07 06:54 39.86895 -1.66152 33858 ft 468 kts 112°
2026-05-07 06:54 39.85952 -1.62155 34119 ft 468 kts 112°
2026-05-07 06:54 39.84994 -1.58111 34354 ft 468 kts 112°
2026-05-07 06:55 39.84019 -1.54009 34591 ft 469 kts 112°
2026-05-07 06:55 39.83067 -1.50011 34805 ft 469 kts 112°
2026-05-07 06:55 39.82098 -1.45947 35026 ft 470 kts 112°
2026-05-07 06:55 39.81133 -1.41897 35221 ft 470 kts 112°
2026-05-07 06:56 39.80139 -1.37848 35409 ft 468 kts 116°
2026-05-07 06:56 39.78773 -1.34048 35620 ft 461 kts 127°
2026-05-07 06:56 39.76966 -1.30658 35782 ft 453 kts 136°
2026-05-07 06:56 39.74792 -1.27748 35955 ft 445 kts 146°
2026-05-07 06:57 39.69634 -1.23562 36029 ft 434 kts 162°
2026-05-07 06:57 39.64121 -1.20360 36027 ft 434 kts 162°
2026-05-07 06:58 39.58639 -1.17040 36021 ft 439 kts 155°
2026-05-07 06:58 39.53895 -1.11892 36012 ft 456 kts 135°
2026-05-07 06:59 39.50490 -1.04832 36003 ft 465 kts 125°
2026-05-07 06:59 39.47305 -0.97543 35991 ft 466 kts 126°
2026-05-07 07:00 39.44096 -0.90265 35973 ft 466 kts 126°
2026-05-07 07:00 39.40885 -0.82965 35974 ft 467 kts 126°
2026-05-07 07:01 39.37677 -0.75677 35974 ft 467 kts 126°
2026-05-07 07:01 39.34446 -0.68386 35975 ft 467 kts 126°
2026-05-07 07:02 39.31230 -0.61150 35974 ft 469 kts 125°
2026-05-07 07:02 39.28986 -0.53137 35975 ft 485 kts 105°
2026-05-07 07:03 39.28792 -0.44361 35969 ft 495 kts 90°
2026-05-07 07:03 39.29199 -0.36925 35968 ft 496 kts 90°
2026-05-07 07:04 39.29661 -0.28105 35967 ft 496 kts 90°
2026-05-07 07:04 39.30118 -0.19206 35972 ft 497 kts 90°
2026-05-07 07:05 39.30580 -0.10298 35967 ft 497 kts 90°
2026-05-07 07:05 39.31027 -0.01375 35958 ft 498 kts 90°
2026-05-07 07:06 39.31463 0.07546 35964 ft 498 kts 90°
2026-05-07 07:06 39.31896 0.16471 35963 ft 499 kts 90°
2026-05-07 07:07 39.32330 0.25419 35949 ft 499 kts 90°
2026-05-07 07:07 39.32762 0.34375 35970 ft 500 kts 90°
2026-05-07 07:08 39.33174 0.43339 35966 ft 500 kts 90°
2026-05-07 07:08 39.33580 0.52307 35963 ft 501 kts 90°
2026-05-07 07:09 39.33987 0.61234 35958 ft 501 kts 90°
2026-05-07 07:09 39.34386 0.70272 35956 ft 501 kts 91°
2026-05-07 07:10 39.34768 0.79217 35962 ft 502 kts 91°
2026-05-07 07:10 39.35153 0.88218 35960 ft 502 kts 91°
2026-05-07 07:11 39.35524 0.97210 35962 ft 502 kts 91°
2026-05-07 07:11 39.35896 1.06219 35955 ft 502 kts 91°
2026-05-07 07:12 39.36262 1.15234 35956 ft 502 kts 91°
2026-05-07 07:12 39.36615 1.24249 35952 ft 503 kts 91°
2026-05-07 07:13 39.36965 1.33288 35952 ft 503 kts 91°
2026-05-07 07:13 39.37312 1.42323 35954 ft 504 kts 91°
2026-05-07 07:14 39.37653 1.51353 35952 ft 504 kts 91°
2026-05-07 07:14 39.37980 1.60407 35954 ft 504 kts 91°
2026-05-07 07:15 39.38295 1.69451 35956 ft 505 kts 91°
2026-05-07 07:15 39.38611 1.78527 35953 ft 505 kts 91°
2026-05-07 07:16 39.38915 1.87534 35953 ft 505 kts 91°
2026-05-07 07:16 39.39210 1.96422 35957 ft 505 kts 91°
2026-05-07 07:17 39.39506 2.05489 35962 ft 506 kts 91°
2026-05-07 07:17 39.39793 2.14581 35960 ft 506 kts 91°
2026-05-07 07:18 39.40073 2.23669 35960 ft 506 kts 91°
2026-05-07 07:18 39.40345 2.32770 35960 ft 506 kts 91°
2026-05-07 07:19 39.40609 2.41857 35960 ft 506 kts 91°
2026-05-07 07:19 39.40867 2.50958 35959 ft 506 kts 91°
2026-05-07 07:20 39.41122 2.60071 35957 ft 507 kts 91°
2026-05-07 07:20 39.41371 2.69171 35958 ft 507 kts 91°
2026-05-07 07:21 39.41606 2.78276 35954 ft 507 kts 91°
2026-05-07 07:21 39.41836 2.87336 35954 ft 507 kts 91°
2026-05-07 07:22 39.42067 2.96459 35957 ft 508 kts 91°
2026-05-07 07:22 39.42286 3.05579 35963 ft 508 kts 92°
2026-05-07 07:23 39.42490 3.14723 35966 ft 509 kts 92°
2026-05-07 07:23 39.43213 3.23834 35962 ft 514 kts 77°
2026-05-07 07:24 39.45850 3.32407 35967 ft 515 kts 59°
2026-05-07 07:24 39.49524 3.40372 35970 ft 515 kts 58°
2026-05-07 07:25 39.55008 3.52352 35982 ft 516 kts 58°
2026-05-07 07:26 39.58662 3.60354 35984 ft 516 kts 58°
2026-05-07 07:26 39.62325 3.68372 35996 ft 517 kts 58°
2026-05-07 07:27 39.65974 3.76391 36002 ft 516 kts 58°
2026-05-07 07:27 39.69614 3.84434 36002 ft 516 kts 59°
2026-05-07 07:28 39.73245 3.92468 36007 ft 516 kts 58°
2026-05-07 07:28 39.76885 4.00525 36007 ft 516 kts 58°
2026-05-07 07:29 39.80512 4.08581 36007 ft 516 kts 59°
2026-05-07 07:29 39.84126 4.16634 36008 ft 516 kts 59°
2026-05-07 07:30 39.87085 4.25112 35998 ft 515 kts 75°
2026-05-07 07:30 39.88958 4.34108 35991 ft 515 kts 76°
2026-05-07 07:31 39.90824 4.43117 35988 ft 515 kts 76°
2026-05-07 07:31 39.92688 4.52135 35989 ft 516 kts 76°
2026-05-07 07:32 39.94547 4.61175 35988 ft 516 kts 76°
2026-05-07 07:32 39.96415 4.70222 35985 ft 517 kts 75°
2026-05-07 07:33 39.98442 4.79146 35986 ft 517 kts 73°
2026-05-07 07:33 40.00563 4.88109 35986 ft 518 kts 73°
2026-05-07 07:34 40.02638 4.97092 35987 ft 518 kts 74°
2026-05-07 07:34 40.04664 5.06114 35988 ft 518 kts 75°
2026-05-07 07:35 40.06680 5.15134 35989 ft 518 kts 74°
2026-05-07 07:35 40.08700 5.24159 35987 ft 518 kts 74°
2026-05-07 07:36 40.10730 5.33189 35987 ft 518 kts 74°
2026-05-07 07:36 40.12741 5.42224 35987 ft 518 kts 74°
2026-05-07 07:37 40.14750 5.51267 35992 ft 519 kts 74°
2026-05-07 07:37 40.16750 5.60345 35998 ft 519 kts 75°
2026-05-07 07:38 40.18747 5.69418 36001 ft 519 kts 74°
2026-05-07 07:38 40.20731 5.78436 36000 ft 519 kts 74°
2026-05-07 07:39 40.22709 5.87527 36003 ft 519 kts 75°
2026-05-07 07:39 40.24679 5.96630 36003 ft 520 kts 75°
2026-05-07 07:40 40.26640 6.05725 36004 ft 520 kts 75°
2026-05-07 07:40 40.28605 6.14834 36000 ft 520 kts 75°
2026-05-07 07:41 40.30562 6.23940 36002 ft 520 kts 75°
2026-05-07 07:41 40.32508 6.33076 36000 ft 520 kts 75°
2026-05-07 07:42 40.34443 6.42198 36000 ft 520 kts 75°
2026-05-07 07:42 40.36379 6.51336 35996 ft 520 kts 75°
2026-05-07 07:43 40.38309 6.60480 35996 ft 520 kts 75°
2026-05-07 07:43 40.40216 6.69572 36001 ft 520 kts 75°
2026-05-07 07:44 40.42129 6.78735 36001 ft 521 kts 75°
2026-05-07 07:44 40.44040 6.87899 36001 ft 521 kts 75°
2026-05-07 07:45 40.45943 6.97078 36004 ft 521 kts 75°
2026-05-07 07:45 40.47836 7.06273 36004 ft 521 kts 75°
2026-05-07 07:46 40.49721 7.15461 36005 ft 521 kts 75°
2026-05-07 07:46 40.51610 7.24665 36006 ft 522 kts 75°
2026-05-07 07:47 40.53485 7.33880 36007 ft 522 kts 75°
2026-05-07 07:47 40.55345 7.43102 36009 ft 522 kts 75°
2026-05-07 07:48 40.56758 7.52458 36008 ft 521 kts 85°
2026-05-07 07:48 40.57572 7.61858 36008 ft 521 kts 85°
2026-05-07 07:49 40.58392 7.71338 36006 ft 522 kts 85°
2026-05-07 07:49 40.59202 7.80814 36004 ft 522 kts 85°
2026-05-07 07:50 40.60001 7.90308 36003 ft 522 kts 85°
2026-05-07 07:50 40.60790 7.99815 36003 ft 522 kts 85°
2026-05-07 07:51 40.61574 8.09317 35999 ft 523 kts 85°
2026-05-07 07:51 40.62373 8.18826 35996 ft 523 kts 82°
2026-05-07 07:52 40.64318 8.28027 35997 ft 522 kts 64°
2026-05-07 07:52 40.67585 8.36531 35996 ft 521 kts 60°
2026-05-07 07:53 40.70906 8.45016 36000 ft 521 kts 60°
2026-05-07 07:53 40.74210 8.53521 36009 ft 521 kts 60°
2026-05-07 07:54 40.77512 8.62022 36019 ft 521 kts 60°
2026-05-07 07:54 40.80260 8.69094 36027 ft 521 kts 60°
2026-05-07 07:55 40.83564 8.77610 36028 ft 521 kts 60°
2026-05-07 07:55 40.86851 8.86138 36028 ft 521 kts 61°
2026-05-07 07:56 40.90126 8.94681 36032 ft 521 kts 61°
2026-05-07 07:56 40.93928 9.04599 36029 ft 520 kts 61°
2026-05-07 07:57 40.96660 9.11763 36041 ft 520 kts 61°
2026-05-07 07:57 40.99899 9.20263 36041 ft 520 kts 61°
2026-05-07 07:58 41.03169 9.28856 36038 ft 520 kts 61°
2026-05-07 07:58 41.06393 9.37369 36040 ft 520 kts 61°
2026-05-07 07:59 41.09628 9.45935 36038 ft 520 kts 61°
2026-05-07 07:59 41.12860 9.54511 36036 ft 520 kts 61°
2026-05-07 08:00 41.16080 9.63094 36035 ft 520 kts 62°
2026-05-07 08:00 41.19292 9.71680 36032 ft 519 kts 62°
2026-05-07 08:01 41.22496 9.80274 36030 ft 519 kts 62°
2026-05-07 08:01 41.25700 9.88892 36031 ft 519 kts 62°
2026-05-07 08:02 41.28895 9.97488 36033 ft 519 kts 62°
2026-05-07 08:02 41.32079 10.06088 36034 ft 518 kts 62°
2026-05-07 08:03 41.35249 10.14692 36030 ft 518 kts 62°
2026-05-07 08:03 41.38405 10.23314 36029 ft 517 kts 62°
2026-05-07 08:04 41.41538 10.31865 36032 ft 517 kts 62°
2026-05-07 08:04 41.44694 10.40474 36040 ft 517 kts 62°
2026-05-07 08:05 41.47831 10.49089 36036 ft 516 kts 62°
2026-05-07 08:05 41.50955 10.57696 36044 ft 515 kts 62°
2026-05-07 08:06 41.54077 10.66300 36041 ft 515 kts 62°
2026-05-07 08:06 41.57188 10.74906 36041 ft 514 kts 63°
2026-05-07 08:07 41.60278 10.83493 36038 ft 513 kts 63°
2026-05-07 08:07 41.63366 10.92097 36038 ft 513 kts 63°
2026-05-07 08:08 41.66440 11.00689 36039 ft 512 kts 63°
2026-05-07 08:08 41.69505 11.09288 36044 ft 511 kts 63°
2026-05-07 08:09 41.72558 11.17876 36046 ft 511 kts 63°
2026-05-07 08:09 41.75603 11.26446 36047 ft 510 kts 63°
2026-05-07 08:10 41.78643 11.35005 36046 ft 509 kts 63°
2026-05-07 08:10 41.81667 11.43594 36048 ft 508 kts 64°
2026-05-07 08:11 41.84671 11.52168 36050 ft 508 kts 64°
2026-05-07 08:11 41.87648 11.60679 36050 ft 507 kts 64°
2026-05-07 08:12 41.90642 11.69233 36058 ft 506 kts 64°
2026-05-07 08:12 41.93622 11.77791 36072 ft 506 kts 64°
2026-05-07 08:13 41.96590 11.86336 36079 ft 505 kts 64°
2026-05-07 08:13 41.99547 11.94901 36089 ft 504 kts 64°
2026-05-07 08:14 42.02489 12.03446 36096 ft 504 kts 64°
2026-05-07 08:14 42.05423 12.11990 36100 ft 503 kts 65°
2026-05-07 08:15 42.08355 12.20540 36089 ft 502 kts 64°
2026-05-07 08:15 42.11282 12.29073 36079 ft 502 kts 65°
2026-05-07 08:16 42.14188 12.37606 36048 ft 501 kts 65°
2026-05-07 08:16 42.17085 12.46151 36046 ft 501 kts 65°
2026-05-07 08:17 42.19958 12.54644 36046 ft 501 kts 65°
2026-05-07 08:17 42.22852 12.63186 36055 ft 500 kts 65°
2026-05-07 08:18 42.25730 12.71735 36064 ft 500 kts 65°
2026-05-07 08:18 42.28596 12.80276 36065 ft 500 kts 65°
2026-05-07 08:19 42.31453 12.88842 36066 ft 499 kts 66°
2026-05-07 08:19 42.34298 12.97387 36066 ft 499 kts 66°
2026-05-07 08:20 42.37151 13.05945 36064 ft 499 kts 66°
2026-05-07 08:20 42.39983 13.14502 36061 ft 498 kts 66°
2026-05-07 08:21 42.42809 13.23061 36057 ft 498 kts 66°
2026-05-07 08:21 42.45623 13.31613 36049 ft 497 kts 66°
2026-05-07 08:22 42.48435 13.40160 36049 ft 497 kts 66°
2026-05-07 08:22 42.51235 13.48712 36043 ft 496 kts 66°
2026-05-07 08:23 42.54006 13.57208 36045 ft 495 kts 66°
2026-05-07 08:23 42.56779 13.65761 36042 ft 495 kts 67°
2026-05-07 08:24 42.59542 13.74308 36043 ft 495 kts 67°
2026-05-07 08:24 42.62311 13.82858 36045 ft 494 kts 67°
2026-05-07 08:25 42.65066 13.91394 36041 ft 494 kts 67°
2026-05-07 08:25 42.67802 13.99941 36036 ft 493 kts 67°
2026-05-07 08:26 42.71896 14.12772 36035 ft 493 kts 67°
2026-05-07 08:26 42.74621 14.21327 35682 ft 492 kts 67°
2026-05-07 08:27 42.75980 14.25595 35429 ft 491 kts 68°
2026-05-07 08:27 42.77341 14.29869 34993 ft 492 kts 68°
2026-05-07 08:27 42.78708 14.34175 33941 ft 500 kts 68°
2026-05-07 08:27 42.80083 14.38536 32826 ft 500 kts 68°
2026-05-07 08:28 42.81447 14.42866 31759 ft 497 kts 68°
2026-05-07 08:28 42.82810 14.47189 30699 ft 495 kts 68°
2026-05-07 08:28 42.84168 14.51505 29400 ft 496 kts 68°
2026-05-07 08:28 42.85526 14.55815 28182 ft 497 kts 68°
2026-05-07 08:29 42.86890 14.60162 27268 ft 498 kts 68°
2026-05-07 08:29 42.88236 14.64472 26569 ft 492 kts 68°
2026-05-07 08:29 42.89552 14.68698 25786 ft 489 kts 68°
2026-05-07 08:29 42.90876 14.72948 25033 ft 486 kts 68°
2026-05-07 08:30 42.92197 14.77187 24283 ft 485 kts 68°
2026-05-07 08:30 42.93515 14.81410 23528 ft 483 kts 68°
2026-05-07 08:30 42.94828 14.85622 22726 ft 480 kts 68°
2026-05-07 08:30 42.96128 14.89806 22041 ft 474 kts 68°
2026-05-07 08:31 42.97365 14.93802 21392 ft 470 kts 68°
2026-05-07 08:31 42.97827 14.95304 21193 ft 467 kts 68°
2026-05-07 08:31 42.99079 14.99381 20515 ft 463 kts 68°
2026-05-07 08:31 43.00317 15.03406 19915 ft 457 kts 68°
2026-05-07 08:32 43.01559 15.07443 19323 ft 452 kts 68°
2026-05-07 08:32 43.02771 15.11382 18761 ft 446 kts 68°
2026-05-07 08:32 43.03971 15.15288 18212 ft 441 kts 68°
2026-05-07 08:32 43.05168 15.19100 17638 ft 434 kts 65°
2026-05-07 08:33 43.10133 15.29155 16101 ft 416 kts 54°
2026-05-07 08:33 43.11820 15.32375 15571 ft 411 kts 54°
2026-05-07 08:34 43.13472 15.35537 15038 ft 407 kts 54°
2026-05-07 08:34 43.15113 15.38683 14498 ft 403 kts 54°
2026-05-07 08:34 43.16735 15.41793 13946 ft 401 kts 54°
2026-05-07 08:34 43.17750 15.43740 13549 ft 400 kts 54°
2026-05-07 08:35 43.19193 15.46504 13004 ft 397 kts 54°
2026-05-07 08:35 43.20788 15.49555 12410 ft 393 kts 54°
2026-05-07 08:35 43.21770 15.51434 12048 ft 391 kts 54°
2026-05-07 08:35 43.23017 15.53819 11566 ft 389 kts 54°
2026-05-07 08:36 43.24587 15.56831 10979 ft 386 kts 54°
2026-05-07 08:36 43.28656 15.64809 10499 ft 325 kts 63°
2026-05-07 08:37 43.29335 15.67647 10266 ft 306 kts 83°
2026-05-07 08:37 43.29280 15.70493 9945 ft 297 kts 103°
2026-05-07 08:37 43.28558 15.73109 9809 ft 293 kts 122°
2026-05-07 08:37 43.27288 15.75270 9645 ft 291 kts 137°
2026-05-07 08:38 43.25843 15.77243 9110 ft 293 kts 133°
2026-05-07 08:38 43.24840 15.79626 8530 ft 293 kts 106°
2026-05-07 08:38 43.24808 15.82382 8020 ft 289 kts 77°
2026-05-07 08:38 43.25716 15.84811 7343 ft 289 kts 49°
2026-05-07 08:39 43.27105 15.86793 6721 ft 287 kts 46°
2026-05-07 08:39 43.28486 15.88703 6147 ft 285 kts 46°
2026-05-07 08:39 43.29877 15.90626 5594 ft 283 kts 47°
2026-05-07 08:39 43.31255 15.92540 5044 ft 281 kts 47°
2026-05-07 08:40 43.32599 15.94411 4842 ft 267 kts 48°
2026-05-07 08:40 43.33865 15.96169 4778 ft 252 kts 48°
2026-05-07 08:40 43.35064 15.97838 4716 ft 240 kts 49°
2026-05-07 08:40 43.36209 15.99438 4630 ft 230 kts 49°
2026-05-07 08:41 43.37308 16.00976 4532 ft 221 kts 49°
2026-05-07 08:41 43.38361 16.02450 4465 ft 208 kts 49°
2026-05-07 08:41 43.39352 16.03839 4368 ft 201 kts 50°
2026-05-07 08:41 43.40317 16.05194 4185 ft 199 kts 49°
2026-05-07 08:42 43.41194 16.06605 3906 ft 195 kts 57°
2026-05-07 08:42 43.41996 16.08096 3663 ft 193 kts 59°
2026-05-07 08:42 43.42764 16.09565 3419 ft 186 kts 61°
2026-05-07 08:42 43.43468 16.10992 3208 ft 175 kts 61°
2026-05-07 08:43 43.44160 16.12313 2987 ft 166 kts 58°
2026-05-07 08:43 43.44836 16.13548 2785 ft 158 kts 60°
2026-05-07 08:43 43.45486 16.14721 2595 ft 152 kts 61°
2026-05-07 08:43 43.46119 16.15858 2423 ft 150 kts 58°
2026-05-07 08:44 43.46777 16.17041 2197 ft 160 kts 59°
2026-05-07 08:44 43.47480 16.18303 1976 ft 173 kts 60°
2026-05-07 08:44 43.48228 16.19642 1728 ft 176 kts 58°
2026-05-07 08:44 43.48967 16.20959 1483 ft 172 kts 59°
2026-05-07 08:45 43.49685 16.22243 1245 ft 168 kts 58°
2026-05-07 08:45 43.50375 16.23477 1018 ft 156 kts 57°
2026-05-07 08:45 43.51003 16.24602 804 ft 143 kts 54°
2026-05-07 08:45 43.51591 16.25656 636 ft 135 kts 54°
2026-05-07 08:46 43.52161 16.26682 450 ft 136 kts 54°
2026-05-07 08:46 43.52721 16.27703 293 ft 132 kts 53°
2026-05-07 08:46 43.53258 16.28654 105 ft 132 kts 52°
2026-05-07 08:46 43.53756 16.29546 72 ft 88 kts 53°
2026-05-07 08:47 43.53971 16.29937 69 ft 35 kts 52°
2026-05-07 08:47 43.54038 16.30094 63 ft 3 kts 128°
2026-05-07 08:47 43.54013 16.30097 58 ft 7 kts 184°
2026-05-07 08:47 43.53971 16.30083 58 ft 9 kts 195°
2026-05-07 08:48 43.53952 16.30076 66 ft 0 kts 196°
2026-05-07 08:48 43.53933 16.30068 65 ft 5 kts 197°
2026-05-07 08:48 43.53891 16.30031 60 ft 9 kts 225°
2026-05-07 08:48 43.53848 16.29956 65 ft 12 kts 232°
2026-05-07 08:49 43.53790 16.29853 66 ft 15 kts 233°
2026-05-07 08:49 43.53746 16.29774 70 ft 7 kts 233°
2026-05-07 08:49 43.53702 16.29696 71 ft 6 kts 224°
2026-05-07 08:49 43.53673 16.29688 70 ft 0 kts 159°
2026-05-07 08:50 43.53646 16.29679 75 ft 4 kts 212°
2026-05-07 08:50 43.53617 16.29641 71 ft 5 kts 172°
2026-05-07 08:50 43.53592 16.29666 68 ft 1 kts 110°
2026-05-07 08:50 43.53585 16.29557 70 ft 0 kts 119°
2026-05-07 08:51 43.53726 16.29874 66 ft 0 kts 114°